Stündliche Wetter Abishevo

Heute, 23 Juni, Mittwoch

Zeit Temperatur Niederschläge Wind Luftdruck Luftfeuchtigkeit
00:00 +24°C° 0 mm 2 m/S 753 mmHg 78%
01:00 +23°C° 0 mm 2 m/S 753 mmHg 82%
02:00 +23°C° 0 mm 2 m/S 753 mmHg 82%
03:00 +21°C° 0 mm 2 m/S 753 mmHg 83%
04:00 +21°C° 0 mm 2 m/S 753 mmHg 83%
05:00 +23°C° 0 mm 2 m/S 753 mmHg 80%
06:00 +25°C° 0 mm 2 m/S 753 mmHg 78%
07:00 +26°C° 0 mm 2 m/S 753 mmHg 75%
08:00 +27°C° 0 mm 3 m/S 753 mmHg 71%
09:00 +29°C° 0 mm 4 m/S 752 mmHg 66%
10:00 +30°C° 0 mm 4 m/S 752 mmHg 61%
11:00 +32°C° 0.1 mm 5 m/S 752 mmHg 57%
12:00 +32°C° 0.1 mm 5 m/S 752 mmHg 54%
13:00 +33°C° 0.1 mm 6 m/S 752 mmHg 50%
14:00 +33°C° 0 mm 5 m/S 752 mmHg 53%
15:00 +32°C° 0 mm 5 m/S 752 mmHg 55%
16:00 +32°C° 0 mm 5 m/S 752 mmHg 58%
17:00 +29°C° 0.4 mm 4 m/S 752 mmHg 64%
18:00 +28°C° 0.4 mm 4 m/S 751 mmHg 71%
19:00 +26°C° 0.4 mm 3 m/S 751 mmHg 77%
20:00 +24°C° 0.9 mm 3 m/S 752 mmHg 82%
21:00 +21°C° 0.9 mm 2 m/S 752 mmHg 86%
22:00 +20°C° 0.9 mm 2 m/S 753 mmHg 91%
23:00 +20°C° 0 mm 1 m/S 752 mmHg 91%

Morgen, 24 Juni, Donnerstag

Zeit Temperatur Niederschläge Wind Luftdruck Luftfeuchtigkeit
00:00 +20°C° 0 mm 1 m/S 752 mmHg 91%
01:00 +20°C° 0 mm 1 m/S 752 mmHg 92%
02:00 +20°C° 0 mm 1 m/S 752 mmHg 92%
03:00 +19°C° 0 mm 1 m/S 752 mmHg 93%
04:00 +19°C° 0 mm 1 m/S 753 mmHg 94%
05:00 +20°C° 0 mm 1 m/S 753 mmHg 91%
06:00 +20°C° 0 mm 2 m/S 753 mmHg 87%
07:00 +21°C° 0 mm 2 m/S 753 mmHg 84%
08:00 +23°C° 0 mm 2 m/S 753 mmHg 78%
09:00 +24°C° 0 mm 2 m/S 753 mmHg 71%
10:00 +26°C° 0 mm 2 m/S 753 mmHg 65%
11:00 +26°C° 0 mm 2 m/S 753 mmHg 62%
12:00 +27°C° 0 mm 2 m/S 753 mmHg 60%
13:00 +28°C° 0 mm 2 m/S 753 mmHg 57%
14:00 +28°C° 0 mm 2 m/S 753 mmHg 56%
15:00 +28°C° 0 mm 2 m/S 753 mmHg 56%
16:00 +29°C° 0 mm 2 m/S 753 mmHg 55%
17:00 +28°C° 0 mm 2 m/S 752 mmHg 60%
18:00 +27°C° 0 mm 2 m/S 752 mmHg 65%
19:00 +27°C° 0 mm 2 m/S 752 mmHg 70%
20:00 +25°C° 0 mm 1 m/S 752 mmHg 71%
21:00 +23°C° 0 mm 1 m/S 752 mmHg 72%
22:00 +22°C° 0 mm 1 m/S 751 mmHg 73%
23:00 +21°C° 0 mm 1 m/S 751 mmHg 75%

übermorgen, 25 Juni, Freitag

Zeit Temperatur Niederschläge Wind Luftdruck Luftfeuchtigkeit
00:00 +21°C° 0 mm 1 m/S 751 mmHg 78%
01:00 +20°C° 0 mm 2 m/S 751 mmHg 80%
02:00 +20°C° 0 mm 1 m/S 751 mmHg 82%
03:00 +20°C° 0 mm 1 m/S 751 mmHg 84%
04:00 +20°C° 0 mm 1 m/S 751 mmHg 87%
05:00 +21°C° 0 mm 1 m/S 751 mmHg 84%
06:00 +23°C° 0 mm 1 m/S 751 mmHg 81%
07:00 +24°C° 0 mm 1 m/S 751 mmHg 79%
08:00 +25°C° 0 mm 2 m/S 751 mmHg 74%
09:00 +27°C° 0 mm 2 m/S 750 mmHg 70%
10:00 +28°C° 0 mm 2 m/S 750 mmHg 66%
11:00 +29°C° 0.2 mm 2 m/S 750 mmHg 63%
12:00 +30°C° 0.2 mm 2 m/S 750 mmHg 60%
13:00 +31°C° 0.2 mm 2 m/S 750 mmHg 58%
14:00 +31°C° 0.1 mm 2 m/S 750 mmHg 57%
15:00 +31°C° 0.1 mm 3 m/S 750 mmHg 56%
16:00 +31°C° 0.1 mm 3 m/S 749 mmHg 55%
17:00 +30°C° 0.1 mm 3 m/S 749 mmHg 61%
18:00 +29°C° 0.1 mm 2 m/S 749 mmHg 67%
19:00 +28°C° 0.1 mm 2 m/S 749 mmHg 74%
20:00 +27°C° 0 mm 2 m/S 749 mmHg 77%
21:00 +25°C° 0 mm 1 m/S 749 mmHg 79%
22:00 +24°C° 0 mm 1 m/S 749 mmHg 82%
23:00 +24°C° 0 mm 1 m/S 749 mmHg 83%

26 Juni, Samstag

Zeit Temperatur Niederschläge Wind Luftdruck Luftfeuchtigkeit
00:00 +23°C° 0 mm 1 m/S 748 mmHg 84%
01:00 +23°C° 0 mm 1 m/S 748 mmHg 85%
02:00 +22°C° 0 mm 1 m/S 748 mmHg 86%
03:00 +22°C° 0 mm 1 m/S 748 mmHg 87%
04:00 +22°C° 0 mm 1 m/S 748 mmHg 88%
05:00 +23°C° 0.1 mm 1 m/S 748 mmHg 85%
06:00 +24°C° 0.1 mm 1 m/S 748 mmHg 82%
07:00 +26°C° 0.1 mm 1 m/S 748 mmHg 79%
08:00 +27°C° 0 mm 2 m/S 748 mmHg 74%
09:00 +28°C° 0 mm 2 m/S 748 mmHg 70%
10:00 +29°C° 0 mm 3 m/S 748 mmHg 66%
11:00 +30°C° 0.5 mm 3 m/S 748 mmHg 62%
12:00 +31°C° 0.5 mm 3 m/S 748 mmHg 59%
13:00 +33°C° 0.5 mm 3 m/S 748 mmHg 56%
14:00 +33°C° 0 mm 3 m/S 748 mmHg 55%
15:00 +33°C° 0 mm 3 m/S 748 mmHg 55%
16:00 +33°C° 0 mm 3 m/S 748 mmHg 54%
17:00 +32°C° 0.1 mm 4 m/S 747 mmHg 60%
18:00 +30°C° 0.1 mm 4 m/S 747 mmHg 67%
19:00 +28°C° 0.1 mm 4 m/S 747 mmHg 73%
20:00 +26°C° 0.7 mm 3 m/S 748 mmHg 75%
21:00 +24°C° 0.7 mm 2 m/S 748 mmHg 76%
22:00 +22°C° 0.7 mm 1 m/S 748 mmHg 78%
23:00 +22°C° 0.1 mm 1 m/S 748 mmHg 81%

27 Juni, Sonntag

Zeit Temperatur Niederschläge Wind Luftdruck Luftfeuchtigkeit
00:00 +22°C° 0.1 mm 1 m/S 748 mmHg 84%
01:00 +21°C° 0.1 mm 1 m/S 748 mmHg 88%
02:00 +21°C° 0 mm 1 m/S 748 mmHg 88%
03:00 +21°C° 0 mm 1 m/S 748 mmHg 88%
04:00 +19°C° 0 mm 0 m/S 748 mmHg 88%
05:00 +20°C° 0 mm 0 m/S 748 mmHg 85%
06:00 +24°C° 0 mm 1 m/S 748 mmHg 82%
07:00 +25°C° 0 mm 1 m/S 749 mmHg 79%
08:00 +26°C° 0.6 mm 1 m/S 748 mmHg 76%
09:00 +27°C° 0.6 mm 1 m/S 748 mmHg 73%
10:00 +28°C° 0.6 mm 2 m/S 748 mmHg 70%
11:00 +29°C° 0.7 mm 2 m/S 748 mmHg 68%
12:00 +29°C° 0.7 mm 2 m/S 748 mmHg 66%
13:00 +30°C° 0.7 mm 2 m/S 748 mmHg 65%
14:00 +30°C° 0.7 mm 2 m/S 748 mmHg 64%
15:00 +30°C° 0.7 mm 3 m/S 748 mmHg 64%
16:00 +29°C° 0.7 mm 3 m/S 748 mmHg 64%
17:00 +28°C° 0.2 mm 3 m/S 749 mmHg 67%
18:00 +27°C° 0.2 mm 3 m/S 749 mmHg 70%
19:00 +27°C° 0.2 mm 3 m/S 749 mmHg 73%
20:00 +25°C° 0 mm 3 m/S 749 mmHg 76%
21:00 +22°C° 0 mm 3 m/S 749 mmHg 79%
22:00 +20°C° 0 mm 2 m/S 749 mmHg 83%
23:00 +20°C° 0 mm 2 m/S 749 mmHg 84%

28 Juni, Montag

Zeit Temperatur Niederschläge Wind Luftdruck Luftfeuchtigkeit
00:00 +19°C° 0 mm 2 m/S 749 mmHg 86%
01:00 +19°C° 0 mm 2 m/S 749 mmHg 87%
02:00 +18°C° 0 mm 2 m/S 749 mmHg 88%
03:00 +18°C° 0 mm 2 m/S 749 mmHg 88%
04:00 +17°C° 0 mm 2 m/S 749 mmHg 88%
05:00 +19°C° 0 mm 2 m/S 749 mmHg 84%
06:00 +20°C° 0 mm 2 m/S 750 mmHg 80%
07:00 +21°C° 0 mm 3 m/S 750 mmHg 77%
08:00 +22°C° 0 mm 3 m/S 750 mmHg 71%
09:00 +25°C° 0 mm 4 m/S 750 mmHg 66%
10:00 +26°C° 0 mm 4 m/S 750 mmHg 61%
11:00 +27°C° 0 mm 4 m/S 750 mmHg 58%
12:00 +27°C° 0 mm 4 m/S 750 mmHg 55%
13:00 +28°C° 0 mm 3 m/S 750 mmHg 52%
14:00 +28°C° 0 mm 3 m/S 750 mmHg 52%
15:00 +29°C° 0 mm 3 m/S 749 mmHg 51%
16:00 +29°C° 0 mm 3 m/S 749 mmHg 51%
17:00 +28°C° 0 mm 3 m/S 749 mmHg 57%
18:00 +28°C° 0 mm 2 m/S 749 mmHg 63%
19:00 +27°C° 0 mm 2 m/S 749 mmHg 69%
20:00 +25°C° 0 mm 2 m/S 749 mmHg 71%
21:00 +24°C° 0 mm 2 m/S 749 mmHg 72%
22:00 +23°C° 0 mm 2 m/S 749 mmHg 74%
23:00 +22°C° 0 mm 1 m/S 749 mmHg 76%
Mehr zeigen

Wir brauchen deine Erlaubnis

Meteoprog und unser Service Anbieter werden persönliche Daten aufbewahren, so wie Cookies, Geräte Bezeichnung oder ähnliche Technologien von deinem Gerät und Prozess, so wie Persönliche Daten Inhalte und Werbungen, genauso wie social Media und den Verkehr zu analysieren.

  • Aufbewahrung und/oder Zugang zu deiner Geräte Informationen.

    Cookies, Geräte Bezeichnung oder andere Informationen, können aufbewahrt oder Zugang zu deinem Gerät erhalten, für den Grund, der oben angegeben wird.

  • Personalisierte Werbung und Inhalte, Messungen, Einblick in das Publikum und Produkt Entwicklung.

    Werbungen und Inhalte können personalisiert werden, basierend auf ein Profil. Mehr Daten können besser personalisierte Werbungen und Inhalte hinzufügen. Werbung und Inhalte können gezeigt und gemessen werden. Einblicke über das Publikum, welche die Werbung gesehen haben und den Inhalt, können abgeleitet werden. So wie Daten können genutzt werden, um es zu verbessern oder die Benutzer Erfahrung zu verbessern das System und die Software.

Wenn du “Ich stimme zu” klickst, erlaubst du uns, die Cookies zu benutzen die Geräte Bezeichnung, den Web oder ähnliche Technologien zu benutzen. Deine Settings, können in deinem Gerät bei deinem Browser geändert werden.

Für den bestimmten Zweck, berechtigten Interessen beruhen darauf, mehr als auf den Inhalt. Du kannst mehr darüber in unseren Privaten und Cookie Politik lesen.